Location: Bieujac
(44.5398°N, 0.1549°W)
Time: 03:19:35
(UTC+00:00)

CZ-4B R/B - Pass Details

Date: 17 November 2019
Orbit: 486 x 653 km, 97.8° (Epoch: 07 December)

Event Time Altitude Azimuth Distance (km) Brightness Sun altitude
Rises 05:38:49 0° 359° (N) 2,568 6.1 -14.3°
Reaches altitude 10° 05:41:14 10° 342° (NNW) 1,684 5.0 -13.9°
Enters shadow 05:42:43 17° 321° (NW) 1,289 4.2 -13.6°
